This is the latest recevied weather packets stored in our database for station/object KB9HUO. If no packets are shown the sender has not sent any weather packets the latest 10 day(s).
| Time | Temp. | Humidity | Pressure | Rain* | Wind** | Luminosity | Snow |
|---|---|---|---|---|---|---|---|
| 1777670781 | 15.56° C | 44% | 1016.1 hPa | 0 mm | - | 104 W/m² | - |
| 1777670477 | 15° C | 43% | 1016.2 hPa | 0 mm | - | 94 W/m² | - |
| 1777670174 | 15° C | 44% | 1016.1 hPa | 0 mm | - | 87 W/m² | - |
| 1777669872 | 15.56° C | 42% | 1016.1 hPa | 0 mm | - | 80 W/m² | - |
| 1777669568 | 15.56° C | 41% | 1016.2 hPa | 0 mm | - | 63 W/m² | - |
| 1777669265 | 15.56° C | 43% | 1016.4 hPa | 0 mm | - | 101 W/m² | - |
| 1777668961 | 15.56° C | 45% | 1016.3 hPa | 0 mm | - | 114 W/m² | - |
| 1777668659 | 15.56° C | 43% | 1016.2 hPa | 0 mm | - | 112 W/m² | - |
| 1777668355 | 15.56° C | 43% | 1016.3 hPa | 0 mm | - | 109 W/m² | - |
| 1777668051 | 15.56° C | 45% | 1016.4 hPa | 0 mm | - | 68 W/m² | - |
| 1777667748 | 15.56° C | 44% | 1016.4 hPa | 0 mm | - | 90 W/m² | - |
| 1777667446 | 15.56° C | 42% | 1016.6 hPa | 0 mm | - | 124 W/m² | - |
| 1777667143 | 15° C | 44% | 1016.5 hPa | 0 mm | - | 98 W/m² | - |
| 1777666839 | 15° C | 45% | 1016.7 hPa | 0 mm | - | 130 W/m² | - |
| 1777666536 | 15° C | 44% | 1016.7 hPa | 0 mm | - | 127 W/m² | - |
| 1777666232 | 15° C | 42% | 1016.5 hPa | 0 mm | - | 89 W/m² | - |
| 1777665930 | 15° C | 42% | 1016.7 hPa | 0 mm | - | 207 W/m² | - |
| 1777665627 | 15.56° C | 41% | 1016.8 hPa | 0 mm | - | 125 W/m² | - |
| 1777665324 | 15° C | 43% | 1016.6 hPa | 0 mm | - | 124 W/m² | - |
| 1777665020 | 14.44° C | 45% | 1016.6 hPa | 0 mm | - | 149 W/m² | - |
| 1777664716 | 14.44° C | 46% | 1016.7 hPa | 0 mm | - | 129 W/m² | - |
| 1777664411 | 15° C | 44% | 1016.6 hPa | 0 mm | - | 118 W/m² | - |
| 1777664110 | 15.56° C | 40% | 1016.6 hPa | 0 mm | - | 131 W/m² | - |
| 1777663808 | 15° C | 44% | 1016.8 hPa | 0 mm | - | 112 W/m² | - |
| 1777663504 | 15° C | 46% | 1016.8 hPa | 0 mm | - | 111 W/m² | - |
* Rain latest hour (hover to see other rain measurements)
** Current wind speed in m/s (hover to see current wind gust speed)